Powrót do katalogu

STARLINK-36639

AktywnyŁącznośćSSO
NORAD 67669·PAYLOAD·🇺🇸 United States

Wystrzelony Feb 2, 2026 z Vandenberg Space Force Base

Loading…

Następne Przeloty (najbliższe 24 godziny)

TLE

ŚwieżeSource: CelesTrak SupGP

Epoka: Sep 15, 2026, 04:14 UTC

1 67669C 26022X   26258.17687500 -.00052014  00000+0 -16147-2 0  2585
2 67669  97.2841 289.8258 0001155  92.3068 204.2546 15.33463725    12

Śledź STARLINK-36639 w czasie rzeczywistym z AllMySat

Download on the App Store